EW8735 Weather Reports


Display with metric or nautical units.
time (UTC)temp
F
wind
direction
speed
MPH
gust
MPH
rain 1hr
in
rain 24hr
in
rain mn
in
humidity
%
barometer
mb
20200219091531 26 29 0.0 2.0 0.00 0.00 0.00 88 1028.9
20200219090056 26 29 0.0 2.0 0.00 0.00 0.00 87 1028.9
20200219084513 26 27 1.0 4.0 0.00 0.00 0.00 86 1028.9
20200219083017 26 54 1.0 3.0 0.00 0.00 0.00 86 1028.6
20200219081510 26 54 2.0 4.0 0.00 0.00 0.00 86 1028.6
20200219080008 26 56 2.0 4.0 0.00 0.00 0.00 85 1028.5
20200219074524 27 55 2.0 4.0 0.00 0.00 0.00 85 1028.5
20200219073006 27 56 2.0 3.0 0.00 0.00 0.00 85 1028.5
20200219071503 28 55 2.0 4.0 0.00 0.00 0.00 86 1028.4
20200219070002 28 58 0.0 3.0 0.00 0.00 0.00 85 1028.4
20200219064504 28 55 1.0 4.0 0.00 0.00 0.00 84 1028.4
20200219063001 28 45 2.0 4.0 0.00 0.00 0.00 86 1028.4
20200219060203 28 214 0.0 1.0 0.00 0.00 0.00 83 1028.3
20200219054721 29 214 0.0 0.0 0.00 0.00 0.00 82 1028.3
20200219053127 30 214 0.0 4.0 0.00 0.00 0.00 81 1028.1
20200219051713 30 214 0.0 3.0 0.00 0.00 0.00 82 1028.0
20200219050147 30 214 1.0 4.0 0.00 0.00 0.00 83 1027.9
20200219044639 30 214 2.0 4.0 0.00 0.00 0.00 83 1027.7
20200219043102 30 216 5.0 6.0 0.00 0.00 0.00 82 1027.6
20200219041719 31 233 4.0 5.0 0.00 0.00 0.00 81 1027.5
20200219040130 31 246 3.0 4.0 0.00 0.00 0.00 81 1027.4
20200219034654 30 247 2.0 7.0 0.00 0.00 0.00 81 1027.1
20200219033108 32 253 4.0 7.0 0.00 0.00 0.00 76 1027.0
20200219031659 32 58 0.0 0.0 0.00 0.00 0.00 77 1027.0
20200219030118 33 58 1.0 3.0 0.00 0.00 0.00 74 1026.8
20200219024628 33 58 1.0 3.0 0.00 0.00 0.00 73 1026.7
20200219023100 34 56 2.0 4.0 0.00 0.00 0.00 72 1026.7
20200219021607 35 70 2.0 5.0 0.00 0.00 0.00 71 1026.6
20200219020056 36 55 3.0 5.0 0.00 0.00 0.00 69 1026.5
20200219014615 37 52 3.0 6.0 0.00 0.00 0.00 66 1026.5
20200219013107 38 50 3.0 5.0 0.00 0.00 0.00 65 1026.4
20200219011614 40 49 2.0 7.0 0.00 0.00 0.00 61 1026.1
20200219010137 41 17 3.0 6.0 0.00 0.00 0.00 59 1026.1
20200219010019 41 23 3.0 6.0 0.00 0.00 0.00 59 1026.1
20200219004636 42 40 4.0 10.0 0.00 0.00 0.00 57 1026.0
20200219003103 43 38 5.0 11.0 0.00 0.00 0.00 54 1025.8
20200219001621 44 37 3.0 10.0 0.00 0.00 0.00 52 1025.8
20200219000047 44 47 5.0 10.0 0.00 0.00 0.00 50 1025.7
20200218234622 45 37 3.0 10.0 0.00 0.00 0.00 47 1025.7
20200218233130 46 29 7.0 11.0 0.00 0.00 0.00 47 1025.8
20200218231620 46 67 4.0 10.0 0.00 0.00 0.00 46 1025.9
20200218230101 45 4 4.0 10.0 0.00 0.00 0.00 47 1025.9
20200218224542 46 58 5.0 11.0 0.00 0.00 0.00 46 1025.9
20200218223040 47 354 4.0 9.0 0.00 0.00 0.00 44 1026.0
20200218221540 46 50 1.0 9.0 0.00 0.00 0.00 42 1026.2
20200218220041 48 53 0.0 10.0 0.00 0.00 0.00 41 1026.2
20200218214604 47 21 5.0 9.0 0.00 0.00 0.00 42 1026.3
20200218213056 47 25 2.0 8.0 0.00 0.00 0.00 42 1026.4
20200218211529 45 21 1.0 4.0 0.00 0.00 0.00 43 1026.5
20200218210034 45 51 1.0 5.0 0.00 0.00 0.00 43 1026.6
20200218204531 46 28 1.0 5.0 0.00 0.00 0.00 45 1026.8
20200218203030 44 349 2.0 5.0 0.00 0.00 0.00 49 1027.0
20200218201537 44 4 1.0 3.0 0.00 0.00 0.00 50 1027.3
20200218200019 43 18 2.0 4.0 0.00 0.00 0.00 51 1027.5
20200218194529 43 4 1.0 4.0 0.00 0.00 0.00 55 1027.6
20200218193015 42 261 0.0 4.0 0.00 0.00 0.00 56 1027.8
20200218191512 41 261 2.0 6.0 0.00 0.00 0.00 58 1027.9
20200218190033 41 339 1.0 3.0 0.00 0.00 0.00 58 1028.0
20200218184508 40 335 2.0 4.0 0.00 0.00 0.00 64 1028.1
20200218183001 38 295 1.0 3.0 0.00 0.00 0.00 68 1028.3
20200218181623 36 294 2.0 4.0 0.00 0.00 0.00 70 1028.3
20200218180103 35 220 0.0 2.0 0.00 0.00 0.00 72 1028.2
20200218174639 35 220 0.0 2.0 0.00 0.00 0.00 71 1028.2
20200218173158 35 220 0.0 2.0 0.00 0.00 0.00 68 1028.2
20200218171633 35 220 0.0 2.0 0.00 0.00 0.00 68 1028.2
20200218170224 34 220 0.0 1.0 0.00 0.00 0.00 69 1028.2
20200218164552 34 219 1.0 3.0 0.00 0.00 0.00 69 1028.2
20200218163053 33 218 0.0 2.0 0.00 0.00 0.00 72 1028.1
20200218161655 32 218 0.0 1.0 0.00 0.00 0.00 75 1028.0
20200218160034 30 218 0.0 0.0 0.00 0.00 0.00 82 1027.9
20200218154605 28 219 0.0 0.0 0.00 0.00 0.00 85 1027.7
20200218153107 26 218 0.0 0.0 0.00 0.00 0.00 87 1027.7
20200218151553 25 218 0.0 0.0 0.00 0.00 0.00 88 1027.6
20200218150054 25 218 0.0 0.0 0.00 0.00 0.00 88 1027.5
20200218144527 25 218 0.0 0.0 0.00 0.00 0.00 87 1027.4
20200218143049 25 218 0.0 0.0 0.00 0.00 0.00 87 1027.2
20200218141548 25 218 0.0 0.0 0.00 0.00 0.00 86 1027.2
20200218140017 25 218 0.0 0.0 0.00 0.00 0.00 85 1027.3
20200218134515 26 218 0.0 0.0 0.00 0.00 0.00 84 1027.2
20200218133039 27 218 0.0 0.0 0.00 0.00 0.00 85 1027.3
20200218131534 27 218 0.0 2.0 0.00 0.00 0.00 86 1027.3
20200218130025 27 218 1.0 2.0 0.00 0.00 0.00 87 1027.5
20200218124522 26 218 2.0 5.0 0.00 0.00 0.00 88 1027.6
20200218123034 26 218 3.0 4.0 0.00 0.00 0.00 87 1027.5
20200218121525 26 218 2.0 3.0 0.00 0.00 0.00 88 1027.5
20200218120026 26 218 1.0 2.0 0.00 0.00 0.00 87 1027.4
20200218114505 27 218 1.0 2.0 0.00 0.00 0.00 88 1027.3
20200218113014 27 218 1.0 5.0 0.00 0.00 0.00 87 1027.3
20200218111504 27 218 3.0 5.0 0.00 0.00 0.00 87 1027.4
20200218110007 27 218 3.0 5.0 0.00 0.00 0.00 87 1027.4
20200218104643 27 218 3.0 4.0 0.00 0.00 0.00 87 1027.4
20200218103134 27 218 0.0 0.0 0.00 0.00 0.00 86 1027.4
20200218101650 27 218 0.0 0.0 0.00 0.00 0.00 86 1027.4
20200218100135 27 218 0.0 0.0 0.00 0.00 0.00 86 1027.4
20200218094632 27 218 0.0 0.0 0.00 0.00 0.00 86 1027.5
20200218093204 28 218 0.0 0.0 0.00 0.00 0.00 86 1027.5